WESTFORD NEEDLES, 629

Orbit data source: Space-Track

WESTFORD NEEDLES, 629 is space debris in LEO originally from a launch on Thu, 09 May 1963 UTC via an ATLAS AGENA B launch vehicle from the Air Force Western Test Range (AFWTR). Debris objects in space refer to the collection of defunct objects orbiting the Earth. Examples of debris include non-operational satellites, rocket bodies, and fragments generated from explosions, collisions, or faulty payload assembly.

Loading next visibility...
Identifier
629, 1963-014G
Orbit
LEO
Country
Flag of USUS
Related business
Manufacturer
MIT-LL
Mission
Spacecraft
Bus & Motor
Unknown
Mass
8 kg wet, 8 kg dry
Launch date (UTC)
1963-05-09 (63 years ago)
Launch vehicle
ATLAS AGENA B
Launch site
Air Force Western Test Range (AFWTR)
Object type
Payload
Rocket body
Debris
Shape & HBR
Unknown shape, 1.1 m
Radar Cross Section
Large (>1 m²)

Expand to show TLE details & history
Last TLE update: 1 day ago

TLE from 1 day ago
0 WESTFORD NEEDLES
1 00629U 63014G   25340.62223861  .00000031  00000-0  13352-1 0  9994
2 00629  87.3447 209.6020 0050987 195.1442 164.7887  8.65564571977535
Epoch: 2025-12-06T14:56Z
TLE epoch observation values (Epoch: 2025-12-06T14:56:01.415Z)
Latitude
-0.00002°
Longitude
-90.05123°
Altitude
3,693.399 km
Speed
6.276 km/s
True Right ascension
13h 58m 24s
True Declination
0° 00' 00"
Sunlit
Object was in daylight at epoch
Visualization orbit readout
Latitude
Unknown
Longitude
Unknown
Altitude
Unknown
Speed
Unknown
Apparent Right ascension
Unknown
Apparent Declination
Unknown
Sunlit
N/A
Visualization observer readout
Local Sidereal Time
14:25:46
Azimuth
Unknown
Elevation
Unknown
Doppler factor
Unknown
Orbital elements
Apogee altitude
3,690.79 km
Perigee altitude
3,588.634 km
Semi-major axis
10,017.849 km
Eccentricity
0.0051
Inclination
87.3447°
RAAN
209.602°
Arg. of periapsis
195.1442°
True anomaly
164.94106°
Mean anomaly
164.7887°
Eccentric anomaly
164.86497°
Mean motion
2.16462 °/min
Orbital period
166.31 mins
BSTAR
0.013352
Loading maneuver chart data...
Computing Atmospheric mass density...

Documentation

Showing up to 5 results
|